[[{"header":{"parameterUnit":"m.s-1","parameterCategory":1,"la1":30.2991,"la2":30.254,"lo1":-89.0895,"lo2":-89.0444,"dy":0.0017,"dx":0.0017,"nx":28,"ny":28,"refTime":"2025-06-23T03:00:00:Z","depth":0,"parameterNumber":2,"parameterNumberName":"U-component_of_WINDS"},"data":[0,0,0,0,0,0,0,0,0,0,0,0,0,0,0,0,0,0,0,0,0,0,0,0,0,0,0,0,0,0,0,0,0,0,0,0,0,0,0,0,0,0,0,0,0,0,0,0,0,0,0,0,0,0,0,0,0,0,-2.9136,-2.9136,0,-2.9159,-2.916,-2.916,-2.9102,-2.91,-2.9098,-2.9096,-2.9122,-2.9125,-2.9127,0,0,0,0,0,0,0,0,0,0,0,0,0,-2.9046,-2.9048,-2.9136,-2.9136,-2.9137,-2.9159,-2.916,-2.916,-2.9102,-2.91,-2.9097,-2.9095,-2.9121,-2.9124,-2.9127,0,0,0,0,0,0,0,0,0,0,0,0,0,-2.9079,-2.9049,-2.9136,-2.911,-2.9108,-2.9159,-2.916,-2.916,-2.9102,-2.91,-2.9097,-2.9094,-2.9121,-2.9124,-2.9128,-2.9205,0,0,-2.9139,-2.914,0,0,0,0,0,0,0,0,-2.9077,-2.9082,-2.9114,-2.9112,-2.911,-2.9125,-2.9137,-2.9175,-2.9103,-2.9105,-2.9096,-2.9093,-2.9125,-2.9129,-2.9139,-2.9206,-2.9208,-2.9139,-2.9141,-2.9143,-2.9144,0,0,0,0,0,0,0,-2.9075,-2.9081,-2.9145,-2.9114,-2.9112,-2.9099,-2.9101,-2.9144,-2.913,-2.9104,-2.91,-2.9104,-2.9124,-2.9136,-2.9139,-2.9208,-2.9139,-2.9142,-2.9144,-2.9146,-2.9344,-2.9347,0,0,0,0,0,0,-2.9076,-2.908,-2.9145,-2.9146,-2.9086,-2.9103,-2.9105,-2.9123,-2.913,-2.9128,-2.9106,-2.9101,-2.9131,-2.9135,-2.914,-2.9232,-2.9143,-2.9146,-2.9148,-2.9341,-2.9344,-2.9348,0,0,0,0,0,0,-2.9074,-2.9082,-2.9144,-2.9112,-2.9119,-2.9108,-2.9128,-2.9125,-2.9136,-2.9131,-2.9128,-2.912,-2.9129,-2.9135,-2.919,-2.9232,-2.9148,-2.9151,-2.9337,-2.9342,-2.9346,-2.9418,0,0,0,0,0,0,-2.9072,-2.9082,-2.911,-2.9113,-2.9121,-2.9192,-2.9131,-2.9127,-2.9142,-2.9136,-2.9144,-2.9142,-2.9127,-2.9185,-2.9194,-2.9236,-2.9154,-2.9333,-2.9339,-2.9345,-2.9411,-2.9424,-2.9435,0,0,0,0,0,-2.9069,-2.9129,-2.9111,-2.9119,-2.9155,-2.9194,-2.9199,-2.918,-2.9146,-2.9175,-2.9172,-2.9142,-2.9227,-2.9191,-2.92,-2.9244,-2.933,-2.9337,-2.9344,-2.9406,-2.9422,-2.9435,0,0,0,0,0,0,-2.913,-2.9128,-2.9109,-2.9172,-2.9184,-2.9184,-2.922,-2.9196,-2.9219,-2.9212,-2.9188,-2.919,-2.925,-2.9253,-2.9213,-2.9322,-2.9273,-2.9282,-2.9317,-2.9332,-2.9343,-2.9341,-2.9157,0,0,0,0,0,-2.9152,-2.9182,-2.918,-2.9235,-2.9242,-2.9231,-2.9247,-2.9231,-2.9243,-2.9248,-2.9249,-2.9263,-2.9293,-2.9313,-2.934,-2.9413,-2.9414,-2.9448,-2.946,-2.947,-2.9477,-2.9518,-2.9534,-2.9371,-2.9371,-2.937,0,0,-2.9195,-2.9198,-2.9219,-2.9248,-2.9255,-2.929,-2.9235,-2.9273,-2.9299,-2.9254,-2.9306,-2.9308,-2.9322,-2.9387,-2.9415,-2.9391,-2.9523,-2.9478,-2.9486,-2.9489,-2.9527,-2.9542,-2.9556,-2.9375,-2.9374,-2.9374,0,0,-2.9291,-2.9296,-2.9344,-2.9353,-2.9365,-2.9358,-2.937,-2.9375,-2.9374,-2.9427,-2.9395,-2.9426,-2.9478,-2.9489,-2.9502,-2.9608,-2.9582,-2.9618,-2.9679,-2.9719,-2.9732,-2.9744,-2.9782,-2.9796,-2.9626,-2.9626,-2.9627,0,-2.9344,-2.9392,-2.9372,-2.9412,-2.9427,-2.9389,-2.9439,-2.9449,-2.947,-2.9482,-2.9455,-2.9521,-2.9527,-2.9595,-2.9622,-2.9633,-2.9647,-2.9616,-2.9732,-2.9743,-2.9753,-2.979,-2.9804,-2.9631,-2.963,-2.963,-2.9629,0,-2.9457,-2.9492,-2.9529,-2.9551,-2.957,-2.9615,-2.9603,-2.9626,-2.961,-2.9606,-2.9662,-2.9669,-2.9698,-2.9713,-2.9698,-2.9781,-2.9765,-2.9736,-2.9686,-2.9773,-2.9808,-2.9821,-2.9637,-2.9635,-2.9634,-2.9633,0,0,-2.9589,-2.9601,-2.9615,-2.9626,-2.9638,-2.9666,-2.9711,-2.9739,-2.976,-2.9777,-2.9815,-2.9862,-2.9835,-2.985,-2.9836,-2.9872,-2.9957,-2.9838,-2.9838,-2.986,-3.0051,-3.0072,-3.0089,-2.9941,-2.9944,-2.9946,-3.005,0,-2.9685,-2.976,-2.9745,-2.982,-2.9853,-2.982,-2.986,-2.9873,-2.9872,-2.9901,-2.9901,-2.9934,-2.9896,-2.9905,-2.9939,-2.994,-2.9995,-2.9932,-2.9977,-2.9979,-2.9973,-3.0106,-3.0128,-3.0226,-3.0063,-3.0065,-3.0067,0,-2.9805,-2.9827,-2.9905,-2.9915,-2.9929,-2.9964,-2.9991,-3.0019,-3.0035,-3.0032,-3.0051,-3.0031,-3.0079,-3.0031,-3.0096,-3.0054,-3.0072,-3.0076,-3.0079,-3.0081,-3.0027,-3.0112,-3.0256,-3.0271,-3.0087,-3.0086,-3.0084,0,-2.9894,-2.9944,-2.9997,-3.0008,-3.0021,-3.0047,-3.0054,-3.0067,-3.0086,-3.011,-3.0123,-3.0152,-3.0168,-3.0193,-3.0183,-3.0149,-3.0252,-3.0202,-3.0251,-3.0252,-3.0273,-3.0271,-3.0422,-3.0286,-3.0286,-3.0286,-3.0286,0,-3.0002,-3.0051,-3.0038,-3.0071,-3.0126,-3.011,-3.0166,-3.0169,-3.0182,-3.0216,-3.0191,-3.0224,-3.021,-3.0243,-3.0236,-3.0293,-3.03,-3.03,-3.0298,-3.0302,-3.0302,-3.0312,-3.0305,-3.029,-3.0289,-3.0288,-3.0287,0,-3.011,-3.0103,-3.0159,-3.0168,-3.0172,-3.0212,-3.022,-3.0253,-3.0251,-3.0295,-3.0305,-3.0303,-3.0341,-3.0334,-3.0376,-3.0372,-3.0443,-3.0432,-3.0437,-3.0434,-3.0484,-3.048,-3.0646,-3.0667,-3.0518,-3.052,-3.0521,0,-3.0178,-3.0215,-3.0229,-3.025,-3.0259,-3.0293,-3.0313,-3.03,-3.0322,-3.0345,-3.0375,-3.0411,-3.0438,-3.0502,-3.0505,-3.0538,-3.0528,-3.0584,-3.0532,-3.0536,-3.0529,-3.0526,-3.0531,-3.0593,-3.0595,-3.0596,-3.0598,0,-3.0301,-3.0296,-3.0325,-3.0354,-3.0378,-3.0401,-3.042,-3.044,-3.0429,-3.0456,-3.0494,-3.0516,-3.056,-3.0597,-3.0628,-3.0637,-3.0617,-3.0614,-3.0627,-3.0632,-3.0633,-3.0633,-3.0464,-3.061,-3.0609,-3.0608,-3.0607,-3.0607,-3.0391,-3.0423,-3.0438,-3.0472,-3.0486,-3.0506,-3.0537,-3.054,-3.0572,-3.0606,-3.0598,-3.0642,-3.0661,-3.0701,-3.0714,-3.075,-3.0729,-3.0748,-3.0753,-3.0758,-3.0764,-3.0628,-3.0756,-3.0755,-3.0755,-3.0755,-3.0755,0,-3.0512,-3.0521,-3.0552,-3.0581,-3.0609,-3.0588,-3.061,-3.0634,-3.0673,-3.0692,-3.0721,-3.0767,-3.0803,-3.0811,-3.0846,-3.0874,-3.0865,-3.0883,-3.0881,-3.0884,-3.078,-3.0765,-3.089,-3.089,-3.089,-3.089,-3.089,-3.089,-3.0578,-3.0632,-3.0631,-3.0693,-3.0702,-3.0744,-3.0759,-3.0778,-3.0793,-3.0846,-3.0876,-3.088,-3.0896,-3.0932,-3.0966,-3.0967,-3.0982,-3.1004,-3.1002,-3.0904,-3.0891,-3.0878,-3.0863,-3.1007,-3.1007,-3.1102,-3.1103,-3.1104]},{"header":{"parameterUnit":"m.s-1","parameterCategory":1,"la1":30.2991,"la2":30.254,"lo1":-89.0895,"lo2":-89.0444,"dy":0.0017,"dx":0.0017,"nx":28,"ny":28,"refTime":"2025-06-23T03:00:00:Z","depth":0,"parameterNumber":3,"parameterNumberName":"V-component_of_WINDS"},"data":[0,0,0,0,0,0,0,0,0,0,0,0,0,0,0,0,0,0,0,0,0,0,0,0,0,0,0,0,0,0,0,0,0,0,0,0,0,0,0,0,0,0,0,0,0,0,0,0,0,0,0,0,0,0,0,0,0,0,3.7775,3.7776,0,3.7825,3.7826,3.7826,3.7899,3.7901,3.7902,3.7903,3.7949,3.7949,3.7949,0,0,0,0,0,0,0,0,0,0,0,0,0,3.7741,3.7741,3.7775,3.7776,3.7777,3.7825,3.7826,3.7826,3.7899,3.7901,3.7902,3.7904,3.7949,3.7949,3.7949,0,0,0,0,0,0,0,0,0,0,0,0,0,3.7769,3.7741,3.7775,3.7819,3.7823,3.7825,3.7826,3.7826,3.7899,3.7901,3.7903,3.7905,3.7949,3.7949,3.7949,3.791,0,0,3.7949,3.7949,0,0,0,0,0,0,0,0,3.7768,3.7771,3.7812,3.7816,3.7821,3.7858,3.783,3.7854,3.7898,3.787,3.7903,3.7906,3.7917,3.792,3.7925,3.7912,3.7914,3.7949,3.7949,3.7949,3.7949,0,0,0,0,0,0,0,3.7766,3.7769,3.7795,3.7812,3.7818,3.7835,3.7841,3.7835,3.7882,3.7873,3.7878,3.7883,3.792,3.7924,3.7926,3.7915,3.7949,3.7949,3.7949,3.7949,3.7874,3.7872,0,0,0,0,0,0,3.7758,3.7767,3.7793,3.7796,3.7799,3.7834,3.7841,3.7844,3.7882,3.789,3.7882,3.7887,3.7923,3.7926,3.7928,3.7885,3.7949,3.7949,3.7949,3.7876,3.7874,3.7871,0,0,0,0,0,0,3.7757,3.7759,3.7791,3.7783,3.7789,3.7833,3.7835,3.7844,3.7849,3.7889,3.7897,3.7878,3.7925,3.7928,3.7915,3.7888,3.7949,3.7949,3.7878,3.7875,3.7872,3.7798,0,0,0,0,0,0,3.7755,3.7759,3.7745,3.7782,3.7789,3.7778,3.7834,3.7844,3.7849,3.7856,3.7888,3.7895,3.7927,3.7914,3.7915,3.7889,3.7949,3.7881,3.7877,3.7873,3.7803,3.7793,3.7785,0,0,0,0,0,3.7754,3.7721,3.7744,3.7746,3.7773,3.7776,3.7779,3.7818,3.7847,3.7833,3.7859,3.7894,3.7891,3.7912,3.7913,3.7887,3.7883,3.7878,3.7874,3.7808,3.7795,3.7785,0,0,0,0,0,0,3.7676,3.7726,3.7752,3.773,3.7749,3.7788,3.7772,3.7804,3.7813,3.7819,3.7866,3.7872,3.7853,3.7869,3.7892,3.7852,3.7892,3.7888,3.7842,3.783,3.7821,3.7816,3.7949,0,0,0,0,0,3.7657,3.7657,3.77,3.7677,3.7685,3.7727,3.773,3.7759,3.7778,3.7786,3.7811,3.7828,3.7831,3.7832,3.7837,3.7807,3.7814,3.779,3.778,3.7772,3.7767,3.7753,3.7742,3.7857,3.7857,3.7857,0,0,3.7616,3.7644,3.764,3.7662,3.7679,3.7677,3.7732,3.7727,3.7726,3.7785,3.7774,3.7793,3.7815,3.7793,3.7785,3.7806,3.7738,3.7766,3.776,3.7759,3.7747,3.7736,3.7726,3.7854,3.7854,3.7855,0,0,3.7541,3.7562,3.7545,3.7562,3.7589,3.7618,3.7614,3.7649,3.7665,3.7655,3.7699,3.7698,3.7702,3.7717,3.7724,3.7657,3.7689,3.7657,3.7607,3.7593,3.7583,3.7576,3.7551,3.7542,3.7653,3.7652,3.7652,0,3.7486,3.7486,3.7532,3.7525,3.7533,3.7589,3.7571,3.7585,3.7611,3.7615,3.7639,3.7647,3.7666,3.7648,3.7632,3.7637,3.7633,3.7653,3.7581,3.7574,3.7567,3.7544,3.7535,3.7648,3.7649,3.7649,3.765,0,3.7418,3.7417,3.74,3.7426,3.7433,3.742,3.7463,3.7464,3.7493,3.7519,3.7508,3.7534,3.7545,3.7543,3.7571,3.753,3.7542,3.7573,3.7614,3.7552,3.7531,3.7522,3.7642,3.7644,3.7645,3.7646,0,0,3.7292,3.7346,3.7339,3.7352,3.7387,3.7386,3.7377,3.739,3.739,3.7406,3.7399,3.7403,3.7432,3.7441,3.7471,3.7458,3.7403,3.7491,3.7492,3.7473,3.7359,3.7334,3.7323,3.7426,3.7424,3.7423,3.7357,0,3.7222,3.721,3.7252,3.7229,3.7229,3.7283,3.7275,3.7295,3.7319,3.7322,3.7348,3.735,3.7389,3.7395,3.7385,3.7412,3.738,3.7417,3.7417,3.7417,3.7409,3.7313,3.7286,3.7223,3.7349,3.7348,3.7347,0,3.7139,3.7154,3.7131,3.7169,3.717,3.7162,3.7178,3.7181,3.7204,3.7223,3.7234,3.727,3.7262,3.7303,3.7293,3.7317,3.732,3.7334,3.7332,3.7332,3.7377,3.7309,3.7203,3.7193,3.7335,3.7336,3.7336,0,3.7048,3.7063,3.7051,3.7061,3.7105,3.7098,3.7115,3.7142,3.7147,3.7161,3.7165,3.7177,3.7183,3.7192,3.7229,3.7256,3.7215,3.7259,3.7229,3.7228,3.7216,3.7216,3.7108,3.722,3.722,3.722,3.722,0,3.6965,3.6949,3.7012,3.7004,3.6987,3.7036,3.7018,3.7041,3.7064,3.7061,3.7109,3.7105,3.7156,3.7158,3.7187,3.7174,3.7177,3.7191,3.7198,3.7186,3.7184,3.7187,3.7192,3.7218,3.7218,3.7219,3.7219,0,3.686,3.6902,3.6893,3.6936,3.6947,3.6932,3.6969,3.6964,3.6992,3.6988,3.699,3.7034,3.7039,3.7078,3.7091,3.7111,3.7086,3.7103,3.7078,3.7083,3.705,3.7052,3.6939,3.6927,3.7048,3.7047,3.7046,0,3.6804,3.6793,3.6836,3.6839,3.6855,3.6858,3.6865,3.6913,3.6918,3.6946,3.6937,3.6946,3.6956,3.696,3.6992,3.7003,3.7019,3.6979,3.7021,3.7009,3.7018,3.7017,3.7016,3.6969,3.6968,3.6967,3.6966,0,3.6699,3.6721,3.673,3.6746,3.6754,3.6769,3.6786,3.6785,3.6838,3.6841,3.6848,3.6855,3.687,3.6878,3.6894,3.6911,3.6946,3.6953,3.6946,3.6932,3.6918,3.6924,3.7053,3.6954,3.6956,3.6956,3.6957,3.6957,3.6616,3.6609,3.6639,3.6648,3.6667,3.6683,3.668,3.671,3.6716,3.6733,3.6761,3.6763,3.6789,3.6815,3.6829,3.6831,3.6852,3.6842,3.6839,3.6836,3.6829,3.6919,3.6834,3.6834,3.6835,3.6835,3.6835,0,3.6513,3.6536,3.6544,3.6568,3.6575,3.6611,3.6632,3.6635,3.6637,3.6659,3.6668,3.6676,3.6684,3.6719,3.6731,3.6725,3.6742,3.6727,3.6727,3.673,3.681,3.6814,3.6713,3.6713,3.6713,3.6713,3.6713,3.6713,3.646,3.6451,3.6476,3.6477,3.6499,3.6503,3.6513,3.6527,3.6545,3.6552,3.656,3.6584,3.661,3.6625,3.6634,3.6644,3.6645,3.6624,3.6639,3.6713,3.6724,3.6735,3.674,3.6625,3.6625,3.6559,3.6559,3.6558]}]]